Retour au catalogue

DELTA 1 DEB

ActifLEO
NORAD 7184·DEBRIS·🇺🇸 United States

Lancé Nov 6, 1973 depuis Vandenberg Space Force Base

Loading…

Prochains Passages (prochaines 24 heures)

TLE

FraisSource: Space-Track

Époque: Sep 14, 2026, 11:32 UTC

1 07184U 73086EV  26257.48077328  .00000710  00000-0  21525-2 0  9990
2 07184 102.3035 251.7534 0192505  13.0364 140.7937 13.05428019494980

Suivez DELTA 1 DEB en temps réel avec AllMySat

Download on the App Store